Tracking 20942 objects as of 13-Jul-2020
HD Live streaming from Space Station
objects crossing your sky now

QUAKESAT

Track QUAKESAT now!
10-day predictions
QUAKESAT is classified as:


NORAD ID: 27845
Int'l Code: 2003-031F
Perigee: 818.2 km
Apogee: 831.4 km
Inclination: 98.7 °
Period: 101.2 minutes
Semi major axis: 7195 km
RCS: 0.2303 m2 (medium)
Launch date: June 30, 2003
Source: United States (US)
Launch site: PLESETSK MISSILE AND SPACE COMPLEX (PKMTR)

Uplink (MHz):
Downlink (MHz): 436.682
Beacon (MHz):
Mode: 9600bps FSK
Call sign: KD7OVB
Status: Inactive


Nanosatellite; research on early warning for earthquakes.
aabbcc
Your satellite tracking list
Your tracking list is empty




NASA's NSSDC Master Catalog

Two Line Element Set (TLE):
1 27845U 03031F   20195.46859388 +.00000042 +00000-0 +38654-4 0  9997
2 27845 098.6785 204.0826 0009190 010.9850 349.1527 14.22282472883683
Source of the keplerian elements: AFSPC